#timestamp,LO_Frequency,Hit,StdDev 
1627930815.4,286046999.1,N
1627930835.2,286046997.8,N
1627930855.1,286046995.5,Y
1627930856.0,286046995.5,P
1627930875.8,286046995.5,N
1627930895.7,286046995.9,N
1627930915.5,286046993.7,Y
1627930935.3,286046997.1,P
1627930955.2,286046997.6,P
1627930975.0,286046993.7,P
1627930975.9,286046993.7,Y
1627930995.8,286046996.6,P
1627931015.6,286046999.0,P
1627931035.4,286047000.5,N
1627931055.3,286047000.6,N
1627931075.1,286047001.0,N
1627931076.0,286047001.0,N
1627931095.8,286047000.2,N
1627931115.7,286047002.3,N
1627931135.5,286047002.1,N
1627931155.3,286047001.9,N
1627931175.2,286047002.1,N
1627931195.0,286047002.7,N
1627931195.9,286047002.7,N
1627931215.8,286046999.8,N
1627931235.6,286047000.4,N
1627931255.4,286046999.9,N
1627931275.3,286046999.8,N
1627931295.1,286046999.7,N
1627931315.8,286047001.9,N
1627931335.7,286047002.6,N
1627931355.5,286047002.1,N
1627931375.4,286047003.8,N
1627931395.2,286047002.6,N
1627931415.0,286047001.4,N
1627931415.9,286047001.4,N
1627931435.8,286047000.2,N
1627931455.6,286047000.2,N
1627931475.4,286047002.0,N
1627931495.3,286047001.5,N
1627931515.1,286047002.5,N
1627931535.9,286047004.3,Y
1627931555.7,286047000.4,P
1627931575.5,286047000.6,N
1627931595.4,286047002.4,P
1627931615.2,286047001.9,N
1627931635.1,286047002.4,Y
1627931636.0,286047002.4,P
1627931655.8,286047000.6,N
1627931675.6,286047000.2,N
1627931695.5,286047002.4,N
1627931715.3,286047001.9,N
1627931735.1,286047002.2,N
1627931755.9,286047002.6,Y
1627931775.7,286047000.2,P
1627931795.6,286047000.3,N
1627931815.4,286047000.9,N
1627931835.2,286046999.8,N
1627931855.1,286047002.8,Y
1627931856.0,286047002.8,P
1627931875.8,286047000.0,N
1627931895.7,286047001.5,N
1627931915.5,286047001.6,N
1627931935.3,286047000.6,N
1627931955.2,286047000.9,N
1627931975.0,286047000.8,N
1627931975.9,286047000.8,N
1627931995.8,286047002.7,Y
1627932015.6,286047002.6,P
1627932035.4,286047001.7,N
1627932055.3,286047001.7,N
1627932075.1,286047002.4,Y
1627932095.8,286047000.6,P
1627932115.7,286046999.8,N
1627932135.5,286047002.4,N
1627932155.4,286047002.0,N
1627932175.2,286047002.8,N
1627932195.0,286046999.8,N
1627932195.9,286046999.8,N
1627932215.8,286047001.0,N
1627932235.6,286046998.5,N
1627932255.5,286046998.1,N
1627932275.3,286047000.8,N
1627932295.1,286047000.9,N
1627932315.9,286046998.3,N
1627932335.7,286046998.3,N
1627932355.5,286046998.2,N
1627932375.4,286047000.3,N
1627932395.2,286047002.4,N
1627932415.1,286047000.2,N
1627932416.0,286047000.2,N
1627932435.8,286047000.8,N
1627932455.6,286046998.9,N
1627932475.5,286046998.7,N
1627932495.3,286047001.1,N
1627932515.2,286046998.7,N
1627932535.9,286047000.6,N
1627932555.7,286047001.1,N
1627932575.6,286046998.4,N
1627932595.4,286047001.1,N
1627932615.2,286047000.6,N
1627932635.1,286046999.0,N
1627932636.0,286046999.0,N
1627932655.8,286046998.5,N
1627932675.7,286047001.2,N
1627932695.5,286047000.0,N
1627932715.3,286046999.9,N
1627932735.2,286047000.3,N
1627932755.0,286046999.8,N
1627932755.9,286046999.8,N
1627932775.8,286047000.3,N
1627932795.6,286047002.3,N
1627932815.4,286047002.8,N
1627932835.3,286047000.1,N
1627932855.1,286047000.3,N
1627932875.8,286047004.2,Y
1627932895.7,286047006.0,P
1627932915.5,286047003.2,N
1627932935.4,286047005.7,N
1627932955.2,286047002.9,N
1627932975.0,286047005.9,N
1627932975.9,286047005.9,N
1627932995.8,286047005.1,N
1627933015.6,286047007.4,Y
1627933035.5,286047001.3,P
1627933055.3,286047001.4,N
1627933075.1,286047002.5,N
1627933095.9,286046999.8,N
1627933115.7,286047001.9,N
1627933135.6,286046999.8,N
1627933155.4,286047000.2,N
1627933175.2,286047000.2,N
1627933195.1,286047001.0,N
1627933196.0,286047001.0,N
1627933215.8,286046999.7,N
1627933235.7,286047001.9,N
1627933255.5,286047002.6,N
1627933275.3,286047001.5,N
1627933295.2,286047001.8,N
1627933315.0,286047004.4,Y
1627933315.9,286047004.4,P
1627933335.8,286047002.7,N
1627933355.6,286047002.3,N
1627933375.4,286047002.7,N
1627933395.3,286047000.9,N
1627933415.1,286046999.8,N
1627933435.9,286047001.6,N
1627933455.7,286047001.6,N
1627933475.5,286047004.2,Y
1627933495.4,286047000.0,P
1627933515.2,286047000.2,N
1627933535.1,286047000.2,N
1627933536.0,286047000.2,N
1627933555.8,286046999.7,N
1627933575.6,286047000.7,N
1627933595.5,286047001.0,N
1627933615.3,286046998.6,N
1627933635.1,286047001.2,N
1627933655.9,286046999.4,N
1627933675.7,286046999.2,N
1627933695.6,286046999.5,N
1627933715.4,286046998.4,N
1627933735.2,286046999.4,N
1627933755.1,286046996.8,Y
1627933756.0,286046996.8,P
1627933775.8,286046997.7,N
1627933795.7,286046997.6,N
1627933815.5,286046995.0,Y
1627933835.3,286046998.7,P
1627933855.2,286046999.0,P
1627933875.0,286046999.3,N
1627933875.9,286046999.3,N
1627933895.8,286046998.4,Y
1627933915.6,286046998.2,P
1627933935.4,286046998.5,P
1627933955.3,286047001.2,P
1627933975.1,286046998.2,N
1627933995.8,286046999.4,N
1627934015.7,286046996.5,Y
1627934035.5,286046999.4,P
1627934055.4,286046998.8,P
1627934075.2,286047001.2,P
1627934095.0,286046998.6,N
1627934095.9,286046998.6,N
1627934115.8,286046998.5,N
1627934135.6,286046998.7,N
1627934155.4,286046996.8,Y
1627934175.3,286046998.8,P
1627934195.1,286046998.8,P
1627934215.9,286046996.5,P
1627934235.7,286046995.5,Y
1627934255.5,286046995.4,P
1627934275.4,286046996.4,N
1627934295.2,286046993.4,P
1627934315.0,286046996.1,N
1627934315.9,286046996.1,N
1627934335.8,286046996.0,N
1627934355.6,286046993.3,Y
1627934375.5,286046996.8,P
1627934395.3,286046997.8,P
